Location: Brunembert
(50.7122°N, 1.8935°E)
Time: 10:21:26
(UTC+00:00)

Cosmos 44 Rocket - Pass Details

Date: 22 April 2021
Orbit: 636 x 754 km, 65.1° (Epoch: 05 May)

Event Time Altitude Azimuth Distance (km) Brightness Sun altitude
Rises 20:12:22 0° 178° (S) 3,103 6.3 -11.0°
Reaches altitude 10° 20:15:05 10° 164° (SSE) 2,209 5.4 -11.3°
Maximum altitude 20:19:02 23° 113° (ESE) 1,521 4.5 -11.8°
Drops below altitude 10° 20:23:04 10° 61° (ENE) 2,267 5.7 -12.3°
Sets 20:25:53 0° 48° (NE) 3,206 6.6 -12.7°
